Location: Spring Creek
(38.2870°N, 100.2160°W)
Time: 03:20:46
(UTC+00:00)

Cosmos 1697 Rocket - Pass Details

Date: 08 May 2021
Orbit: 832 x 844 km, 71.0° (Epoch: 22 June)

Event Time Altitude Azimuth Distance (km) Brightness Sun altitude
Exits shadow 09:58:42 27° 215° (SW) 1,534 3.5 -17.2°
Maximum altitude 10:01:46 71° 293° (WNW) 881 2.7 -16.7°
Drops below altitude 10° 10:07:22 10° 18° (NNE) 2,446 6.0 -15.9°
Sets 10:09:50 0° 21° (NNE) 3,384 6.9 -15.5°
